Weather History for Khon Kaen, Thailand

Change the Weather History Date:

Monday, March 11, 2013

  Actual Average Record
Temperature  
Mean Temperature 86 °F -  
Max Temperature 98 °F 96 °F - ()
Min Temperature 75 °F 73 °F - ()
Cooling Degree Days 22    
Growing Degree Days 36 (Base 50)    
Moisture  
Dew Point 69 °F    
Average Humidity 58    
Maximum Humidity 89    
Minimum Humidity 23    
Precipitation  
Precipitation 0.00 in 0.06 in - ()
Sea Level Pressure  
Sea Level Pressure 29.81 in    
Wind  
Wind Speed 2 mph ()    
Max Wind Speed 7 mph    
Max Gust Speed -    
Visibility 4.9 miles    
Events      
T = Trace of Precipitation, MM = Missing Value Source: Averaged Metar Reports

Daily Weather History Graph

Daily Weather History Graph

Search for Another Location

Airport:

Trip Planner

Search our weather history database for the weather conditions in past years. The results will help you decide how hot, cold, wet, or windy it might be!

Date:

Astronomy

Mar. 11, 2013 Rise Set
Actual Time 6:19 AM ICT 6:18 PM ICT
Civil Twilight 5:58 AM ICT 6:39 PM ICT
Nautical Twilight 5:33 AM ICT 7:04 PM ICT
Astronomical Twilight 5:08 AM ICT 7:29 PM ICT
Moon 5:34 AM ICT (3/11) 5:52 PM ICT (3/11)
Length of Visible Light 12h 41m
Length of Day
11h 58m
Waning Crescent, 0% of the Moon is Illuminated
Mar 11
Waning Crescent
Mar 12
New
Mar 20
First Quarter
Mar 27
Full
Apr 3
Last Quarter

Hourly Weather History & Observations

Time (ICT) Temp. Heat Index Dew Point Humidity Pressure Visibility Wind Dir Wind Speed Gust Speed Precip Events Conditions
1:00 AM 78 °F - 69 °F 68% 29.83 in 6 mi Calm Calm - -   Clear
4:00 AM 75.2 °F - 71.6 °F 89% 29.80 in 5.0 mi Calm Calm - N/A   Unknown
5:00 AM 75.2 °F - 71.6 °F 89% 29.83 in 5.0 mi Calm Calm - N/A   Unknown
6:00 AM 75.2 °F - 71.6 °F 89% 29.83 in 3.7 mi WSW 2.3 mph - N/A   Unknown
7:00 AM 76 °F - 69 °F 74% 29.84 in 3 mi Calm Calm - -   Mist
7:00 AM 75.2 °F - 71.6 °F 89% 29.86 in 3.7 mi Variable 1.2 mph - N/A   Unknown
8:00 AM 78.8 °F - 71.6 °F 78% 29.89 in 3.1 mi SSW 3.5 mph - N/A   Mist
9:00 AM 82.4 °F 88.2 °F 73.4 °F 74% 29.89 in 3.1 mi Variable 2.3 mph - N/A   Mist
10:00 AM 87.8 °F 95.6 °F 73.4 °F 62% 29.92 in 3.7 mi Variable 2.3 mph - N/A   Unknown
11:00 AM 93.2 °F 97.7 °F 68.0 °F 44% 29.89 in 4.3 mi WSW 4.6 mph - N/A   Partly Cloudy
12:00 PM 93.2 °F 94.9 °F 64.4 °F 38% 29.86 in 5.0 mi Variable 4.6 mph - N/A   Partly Cloudy
1:00 PM 96 °F - 62 °F 23% 29.80 in 6 mi ESE 6.9 mph - -   Partly Cloudy
1:00 PM 96.8 °F 99.0 °F 64.4 °F 34% 29.83 in 5.6 mi Variable 2.3 mph - N/A   Scattered Clouds
2:00 PM 96.8 °F 101.8 °F 68.0 °F 39% 29.80 in 5.6 mi Variable 2.3 mph - N/A   Scattered Clouds
3:00 PM 96.8 °F 101.8 °F 68.0 °F 39% 29.74 in 5.0 mi Variable 4.6 mph - N/A   Scattered Clouds
4:00 PM 95.0 °F 99.5 °F 68.0 °F 41% 29.74 in 5.6 mi Variable 4.6 mph - N/A   Scattered Clouds
5:00 PM 95.0 °F 101.3 °F 69.8 °F 44% 29.74 in 5.6 mi SSW 4.6 mph - N/A   Scattered Clouds
6:00 PM 91.4 °F 98.4 °F 71.6 °F 52% 29.74 in 5.0 mi Calm Calm - N/A   Scattered Clouds
7:00 PM 91 °F - 69 °F 38% 29.74 in 6 mi WSW 2.3 mph - -   Haze
7:00 PM 87.8 °F 92.6 °F 69.8 °F 55% 29.74 in 5.6 mi WSW 2.3 mph - N/A   Scattered Clouds
8:00 PM 86.0 °F 91.8 °F 71.6 °F 62% 29.80 in 5.6 mi Variable 2.3 mph - N/A   Partly Cloudy
9:00 PM - - - N/A% - 5.6 mi SSW 5.8 mph - N/A   Partly Cloudy